Flag for Brunei Weather past 2 weeks in Bandar Seri Begawan, Brunei

Now
81 °F

Passing clouds.


Feels Like: 87 °F
Forecast: 79 / 91 °F
Wind: 3 mph from South

Location: Brunei Airport

Current Time: May 22, 2015 at 10:15:31 PM

Latest Report: May 22, 2015 at 9:30 PM


Visibility: N/A

Pressure: 29.86 "Hg

Humidity: 89%

Dew point: 77 °F

Location of Bandar Seri BegawanLocation

Historic Weather in Bandar Seri Begawan — Graph

°F

Bandar Seri Begawan temperature yesterday

Maximum temperature yesterday: 93 °F (at 12:30 PM)
Minimum temperature yesterday: 77 °F (at 1:00 AM)
Average temperature yesterday: 85 °F

Past Weeks' High & Low Weather Summary

 TemperatureHumidityPressure
High93 °F (May 10, 11:30 AM)100% (May 11, 5:30 AM)29.95 "Hg (May 11, 5:30 AM)
Low75 °F (May 17, 6:00 AM)52% (May 10, 11:00 AM)29.71 "Hg (May 8, 3:30 PM)
Average84 °F80%29.83 "Hg
* Reported May 7 9:00 PM — May 22 9:00 PM, Bandar Seri Begawan, Weather by CustomWeather, © 2015

Note: Actual official high and low records may vary slightly from our data, if they occured in-between our weather recording intervals... More about our weather records

Advertising

Bandar Seri Begawan weather history for previous 24 hours

 ConditionsComfort  
Time TempWeatherWind HumidityBarometerVisibility
9:00 PM
Fri, May 22
81 °FPassing clouds.5 mph89%29.86 "HgN/A
8:30 PM81 °FPassing clouds.8 mph89%29.83 "HgN/A
8:00 PM82 °FPartly cloudy.7 mph79%29.83 "HgN/A
7:30 PM82 °FPartly cloudy.3 mph79%29.83 "HgN/A
7:00 PM82 °FPartly cloudy.6 mph79%29.83 "HgN/A
6:30 PM84 °FThunderstorms. Partly cloudy.8 mph74%29.80 "HgN/A
5:30 PM84 °FThunderstorms. Broken clouds.7 mph79%29.80 "HgN/A
5:00 PM86 °FThunderstorms. Broken clouds.15 mph75%29.80 "Hg5 mi
4:30 PM90 °FThunderstorms. Broken clouds.7 mph71%29.80 "HgN/A
4:00 PM90 °FBroken clouds.9 mph67%29.80 "HgN/A
3:30 PM90 °FBroken clouds.9 mph67%29.77 "HgN/A
3:00 PM91 °FBroken clouds.10 mph63%29.77 "HgN/A
2:30 PM91 °FPartly sunny.10 mph63%29.80 "HgN/A
2:00 PM91 °FPartly sunny.9 mph63%29.80 "HgN/A
1:30 PM91 °FPartly sunny.8 mph63%29.83 "HgN/A
1:00 PM91 °FBroken clouds.8 mph63%29.83 "HgN/A
12:30 PM91 °FBroken clouds.9 mph63%29.86 "HgN/A
12:00 PM91 °FBroken clouds.8 mph63%29.86 "HgN/A
11:30 AM91 °FBroken clouds.8 mph63%29.86 "HgN/A
11:00 AM91 °FBroken clouds.5 mph59%29.89 "HgN/A
10:30 AM90 °FBroken clouds.3 mph71%29.89 "HgN/A
10:00 AM88 °FBroken clouds.3 mph75%29.89 "HgN/A
9:30 AM88 °FBroken clouds.5 mph75%29.89 "HgN/A
9:00 AM86 °FBroken clouds.5 mph84%29.89 "HgN/A
8:30 AM86 °FPartly sunny.1 mph84%29.89 "HgN/A
7:30 AM82 °FPartly sunny.2 mph94%29.86 "HgN/A
7:00 AM81 °FPartly sunny.1 mph100%29.86 "HgN/A
6:30 AM81 °FBroken clouds.1 mph94%29.86 "HgN/A
6:00 AM81 °FPartly cloudy.2 mph94%29.86 "HgN/A
5:30 AM79 °FPartly cloudy.2 mph100%29.86 "HgN/A
4:30 AM81 °FSprinkles. Partly cloudy.1 mph94%29.83 "Hg5 mi
3:00 AM81 °FPassing clouds.1 mph94%29.86 "HgN/A
2:30 AM81 °FPassing clouds.3 mph94%29.86 "HgN/A
2:00 AM82 °FPassing clouds.2 mph89%29.86 "HgN/A
1:30 AM82 °FPassing clouds.1 mph89%29.89 "HgN/A
1:00 AM82 °FPassing clouds.3 mph89%29.89 "HgN/A
12:30 AM82 °FPassing clouds.2 mph89%29.89 "HgN/A
12:00 AM82 °FPassing clouds.5 mph89%29.89 "HgN/A
11:30 PM
Thu, May 21
84 °FPassing clouds.6 mph84%29.89 "HgN/A
11:00 PM84 °FPassing clouds.5 mph84%29.89 "HgN/A
10:30 PM84 °FPassing clouds.7 mph84%29.89 "HgN/A
10:00 PM84 °FPassing clouds.3 mph84%29.89 "HgN/A
Weather by CustomWeather, © 2015

See weather overviewHow to use our weather pages